Terminal Aerodrome Forecast
Issued by NWS Upton, NY

Home | Current Version | Previous Version | Text Only | Print | Product List | Glossary On
Versions: 1 2 3 4 5 6 7 8 9 10 11 12 13 14 15 16 17 18 19 20 21 22 23 24 25 26 27 28 29 30 31 32 33 34
000
FTUS41 KOKX 161120
TAFISP
TAF
KISP 161120Z 1612/1712 VRB03KT P6SM SKC
     FM161400 27006KT P6SM SKC
     FM161700 24008KT P6SM FEW250
     FM170100 24005KT P6SM SCT120 OVC250
     FM170900 VRB03KT P6SM BKN070 OVC100=

USA.gov is the U.S. government's official web portal to all federal, state and local government web resources and services.